OSCAR 7 1 7530U 74089B 26035.85175064 -.00000051 00000-0 -31206-4 0 9999 2 7530 101.9971 47.6895 0012274 25.0005 97.6755 12.53695608343938 OSCAR 11 (UOSAT 2) 1 14781U 84021B 26035.84430842 .00002549 00000-0 26755-3 0 9993 2 14781 97.7894 3.0643 0006029 260.5474 99.5062 14.90378659237418 OSCAR 19 (LUSAT) 1 20442U 90005G 26035.61941775 .00000190 00000-0 84755-4 0 9995 2 20442 98.8950 53.7092 0010751 231.6565 128.3653 14.34073492883397 EYESAT A 1 22825U 93061C 26035.70217369 .00000160 00000-0 77838-4 0 9993 2 22825 98.7053 103.0754 0009295 125.5720 234.6330 14.30901480688058 ITAMSAT 1 22826U 93061D 26035.72089211 .00000189 00000-0 88066-4 0 9995 2 22826 98.7000 102.9985 0009971 110.9747 249.2504 14.31324606688362 RADIO ROSTO 1 23439U 94085A 26035.79187850 -.00000158 00000-0 -32745-2 0 9997 2 23439 64.8159 157.3361 0151495 28.2907 332.6142 11.27582971280975 JAS 2 1 24278U 96046B 26035.59883306 -.00000005 00000-0 27934-4 0 9991 2 24278 98.5424 262.4879 0350867 80.4690 283.5912 13.53266488455236 TECHSAT 1B 1 25397U 98043D 26035.51450147 .00000099 00000-0 63046-4 0 9994 2 25397 98.9982 24.9853 0000649 186.3151 173.8019 14.24396210432446 ISS (ZARYA) 1 25544U 98067A 26035.53404010 .00009649 00000-0 18669-3 0 9994 2 25544 51.6314 236.2588 0011166 64.0196 296.1942 15.48388993551199 PCSAT 1 26931U 01043C 26035.79964533 .00000206 00000-0 10796-3 0 9995 2 26931 67.0488 226.6725 0007050 266.4607 93.5689 14.31892534271492 SAUDISAT 1C 1 27607U 02058C 26035.70306097 .00002263 00000-0 28517-3 0 9994 2 27607 64.5527 178.7782 0074309 286.6550 72.6407 14.82645923244817 CUTE-1 1 27844U 03031E 26035.54529303 .00000437 00000-0 20853-3 0 9994 2 27844 98.6773 45.7587 0009103 205.0069 155.0670 14.24237133172798 CUBESAT XI 4 1 27848U 03031J 26035.74894758 .00000368 00000-0 18097-3 0 9999 2 27848 98.6803 45.7788 0008700 223.6821 136.3669 14.23536735172534 MOZHAYETS 4 1 27939U 03042A 26035.86190949 .00001632 00000-0 26134-3 0 9992 2 27939 98.3393 216.5176 0010888 333.9312 163.2362 14.73155582196060 CUBESAT XI 5 1 28895U 05043F 26035.41327616 .00002399 00000-0 38864-3 0 9995 2 28895 98.2774 188.4247 0013158 266.3345 93.6356 14.72163801 82210 CUTE-1.7+APD 2 1 32785U 08021C 26035.87060070 .00008248 00000-0 54118-3 0 9994 2 32785 97.8162 14.7803 0011022 113.6716 246.5670 15.07878361965246 SEEDS 1 32791U 08021J 26035.52973718 .00022481 00000-0 83441-3 0 9991 2 32791 97.7487 27.6295 0005458 72.2363 287.9470 15.27582540967000 YUBELEINY 1 32953U 08025A 26035.87261046 .00000091 00000-0 58207-3 0 9992 2 32953 82.4992 77.7497 0018481 238.0731 121.8552 12.43174957803250 KKS-1 (KISEKI) 1 33499U 09002H 26035.80321747 .00002458 00000-0 31141-3 0 9999 2 33499 98.1191 316.2019 0008180 10.1166 350.0210 14.82692448916570 SWISSCUBE 1 35932U 09051B 26035.69947547 .00001679 00000-0 34344-3 0 9998 2 35932 98.4132 301.2528 0005557 266.6937 93.3628 14.62160983869793 BEESAT 1 35933U 09051C 26035.71046934 .00001410 00000-0 29462-3 0 9990 2 35933 98.4060 301.1700 0004105 284.7038 75.3707 14.61449802869838 ITUPSAT 1 1 35935U 09051E 26035.31212924 .00001226 00000-0 26448-3 0 9998 2 35935 98.4150 300.0929 0006397 296.8936 63.1609 14.60189859869341 XIWANG-1 (HOPE-1) 1 36122U 09072B 26035.85326061 .00000173 00000-0 57028-3 0 9995 2 36122 100.3862 351.9033 0007465 171.5797 188.5442 13.16434739775595 TISAT 1 1 36799U 10035E 26035.72570172 .00024269 00000-0 94457-3 0 9995 2 36799 98.0632 331.1979 0003411 39.3797 320.7687 15.26002879847466 JUGNU 1 37839U 11058B 26035.69438786 .00000532 00000-0 13824-3 0 9993 2 37839 19.9621 33.3408 0018756 53.7201 103.9503 14.13725905740252 SRMSAT 1 37841U 11058D 26035.59879629 .00000489 00000-0 12131-3 0 9991 2 37841 19.9709 141.9813 0011610 184.7748 205.7826 14.11534857739069 HORYU 2 1 38340U 12025D 26035.59520727 .00004889 00000-0 51239-3 0 9993 2 38340 98.1975 163.3657 0007427 253.6285 106.4115 14.90036339728970 STRAND 1 1 39090U 13009E 26035.49207278 .00000442 00000-0 16335-3 0 9990 2 39090 98.3853 219.0146 0007577 267.4528 92.5791 14.37063574678006 CUBEBUG 1 1 39153U 13018D 26035.40640429 .00004875 00000-0 43697-3 0 9995 2 39153 98.1464 189.6633 0011346 225.9973 134.0312 14.96235891691203 ZACUBE 1 39417U 13066B 26035.84575579 .00008931 00000-0 71201-3 0 9991 2 39417 97.8171 357.5157 0041054 333.4354 26.4764 14.99898899660882 TRITON 1 1 39427U 13066M 26035.83734209 .00005566 00000-0 67721-3 0 9991 2 39427 97.8315 308.6856 0090035 306.3107 52.9816 14.80973605654495 GOMX 1 1 39430U 13066Q 26035.65348797 .00003262 00000-0 49661-3 0 9992 2 39430 97.6573 244.4167 0130401 142.6176 218.4192 14.68948963650457 HUMSAT D 1 39433U 13066T 26035.54183668 .00261339 00000-0 16884-2 0 9998 2 39433 97.4945 45.5440 0002828 55.9601 304.1932 15.75343892666209 CUBEBUG 2 1 39440U 13066AA 26035.85199528 .00005504 00000-0 52227-3 0 9994 2 39440 97.8774 344.4961 0060625 105.5397 255.2526 14.92553342657243 FUNCUBE 1 1 39444U 13066AE 26035.85259501 .00012699 00000-0 83378-3 0 9990 2 39444 97.8143 4.8634 0036210 295.2268 64.5207 15.07236015659711 UWE-3 1 39446U 13066AG 26035.82093608 .00008201 00000-0 72141-3 0 9993 2 39446 97.8555 351.2491 0051805 42.6746 317.8480 14.95741286657781 UNISAT 6 1 40012U 14033C 26035.64465380 .00005959 00000-0 65261-3 0 9991 2 40012 97.7669 190.9106 0046470 144.2954 216.1386 14.87351811626458 DUCHIFAT 1 1 40021U 14033M 26035.66360754 .00049707 00000-0 10169-2 0 9997 2 40021 98.0700 78.2970 0005944 180.5062 179.6180 15.45951636635168 QB50P1 1 40025U 14033R 26035.51270172 .00010763 00000-0 56740-3 0 9995 2 40025 98.0993 37.5795 0008000 331.7138 28.3657 15.15753795632911 OBJECT G 1 40905U 15049G 26035.84959737 .00034090 00000-0 47492-3 0 9990 2 40905 97.4773 72.8048 0005784 2.2958 357.8323 15.56849009575797 LILACSAT 2 1 40908U 15049K 26035.85760660 .00020039 00000-0 40108-3 0 9994 2 40908 97.4854 67.9656 0008172 26.3960 333.7705 15.46763774575266 LQSAT 1 40958U 15057A 26035.86914597 .00000668 00000-0 10242-3 0 9991 2 40958 97.6630 35.8531 0016860 347.3413 12.7372 14.76569560555781 CHUBUSAT 2 1 41338U 16012B 26035.31245455 .00008209 00000-0 37414-3 0 9995 2 41338 30.9981 112.3767 0009383 161.0551 199.0440 15.19234623548189 CHUBUSAT 3 1 41339U 16012C 26035.57493681 .00007050 00000-0 34020-3 0 9993 2 41339 31.0052 117.2526 0009768 156.2229 203.8863 15.17202991548031 PRATHAM 1 41783U 16059A 26035.52037247 .00001119 00000-0 20689-3 0 9990 2 41783 97.8295 38.2497 0029929 281.9167 77.8683 14.66971142500064 ALSAT 1N 1 41789U 16059G 26035.85337517 .00001186 00000-0 20938-3 0 9996 2 41789 97.8021 45.1139 0024574 250.5322 109.3229 14.69034900500571